FW8604 Weather Reports


time (UTC)temp
F
wind
direction
speed
knots
gust
knots
rain 1hr
in
rain 24hr
in
rain mn
in
humidity
%
barometer
mb
20260509000037 50 269 0.0 3.5 0.00 0.00 0.00 55 1012.8
20260508235134 50 301 0.0 3.5 0.00 0.00 0.00 56 1012.7
20260508234235 51 278 1.7 1.7 0.00 0.00 0.00 54 1012.6
20260508233334 51 287 0.9 1.7 0.00 0.00 0.00 55 1012.5
20260508232434 49 0 0.0 0.0 0.00 0.00 0.00 59 1012.6
20260508231534 51 292 0.0 1.7 0.00 0.00 0.00 57 1012.4
20260508230634 51 292 0.0 1.7 0.00 0.00 0.00 55 1012.3
20260508225734 52 292 0.0 1.7 0.00 0.00 0.00 53 1012.5
20260508224834 53 311 0.0 3.5 0.00 0.00 0.00 49 1012.3
20260508222135 54 297 0.9 3.5 0.00 0.00 0.00 48 1012.1
20260508221234 54 296 1.7 3.5 0.00 0.00 0.00 47 1012.0
20260508220334 54 302 1.7 3.5 0.00 0.00 0.00 46 1012.0
20260508215435 55 285 1.7 5.2 0.00 0.00 0.00 45 1011.9
20260508214534 55 271 1.7 3.5 0.00 0.00 0.00 43 1011.8
20260508213636 56 260 0.9 3.5 0.00 0.00 0.00 42 1011.6
20260508210935 58 273 2.6 7.0 0.00 0.00 0.00 37 1011.9
20260508204234 60 280 2.6 11.3 0.00 0.00 0.00 34 1011.2
20260508202434 61 260 3.5 11.3 0.00 0.00 0.00 32 1011.4
20260508200634 61 238 2.6 12.2 0.00 0.00 0.00 30 1011.2
20260508194834 62 249 3.5 11.3 0.00 0.00 0.00 30 1011.2
20260508193934 61 269 4.3 13.9 0.00 0.00 0.00 31 1011.1
20260508193035 61 265 7.0 17.4 0.00 0.00 0.00 29 1011.3
20260508192135 61 251 7.0 17.4 0.00 0.00 0.00 30 1011.3
20260508191234 61 261 7.0 18.2 0.00 0.00 0.00 29 1011.5
20260508190334 61 257 8.7 18.2 0.00 0.00 0.00 29 1011.3
20260508185434 61 263 8.7 18.2 0.00 0.00 0.00 31 1011.5
20260508183635 61 270 7.8 13.9 0.00 0.00 0.00 32 1011.7
20260508182735 61 250 4.3 15.6 0.00 0.00 0.00 32 1011.5
20260508181834 61 246 7.0 14.8 0.00 0.00 0.00 32 1011.9
20260508180936 61 254 2.6 14.8 0.00 0.00 0.00 32 1011.7
20260508180034 61 246 5.2 19.1 0.00 0.00 0.00 33 1012.0
20260508175134 60 261 10.4 20.0 0.00 0.00 0.00 33 1012.0
20260508174238 60 244 6.1 15.6 0.00 0.00 0.00 33 1012.0
20260508173334 60 246 7.0 17.4 0.00 0.01 0.00 32 1012.3
20260508172434 60 255 7.0 17.4 0.00 0.01 0.00 35 1012.2
20260508171534 59 241 1.7 14.8 0.00 0.01 0.00 36 1012.4
20260508165734 60 246 5.2 15.6 0.00 0.01 0.00 36 1012.9
20260508164834 58 252 9.6 15.6 0.00 0.01 0.00 36 1013.0
20260508163034 58 249 7.0 15.6 0.00 0.02 0.00 37 1013.0
20260508162134 58 246 7.0 13.9 0.00 0.02 0.00 38 1013.2
20260508161234 58 232 7.0 15.6 0.00 0.02 0.00 39 1013.2
20260508160334 57 241 7.8 15.6 0.00 0.02 0.00 39 1013.5
20260508155435 57 260 7.0 14.8 0.00 0.02 0.00 40 1013.8
20260508154534 57 248 4.3 15.6 0.00 0.02 0.00 41 1014.0
20260508153634 57 238 7.0 15.6 0.00 0.02 0.00 41 1014.3
20260508152734 57 225 9.6 15.6 0.00 0.04 0.00 42 1014.3
20260508151834 56 225 7.0 13.0 0.00 0.05 0.00 44 1014.5
20260508150936 56 242 5.2 12.2 0.00 0.05 0.00 44 1014.5
20260508150035 55 275 3.5 15.6 0.00 0.05 0.00 45 1014.9
20260508145134 56 254 6.1 13.0 0.00 0.05 0.00 45 1014.8
20260508144234 55 258 6.1 15.6 0.00 0.05 0.00 45 1014.9
20260508143335 55 252 5.2 13.0 0.00 0.05 0.00 46 1014.6
20260508142434 55 241 7.0 13.0 0.00 0.05 0.00 46 1014.8
20260508141534 54 235 4.3 13.9 0.00 0.05 0.00 46 1014.7
20260508140635 53 231 6.1 18.2 0.00 0.05 0.00 48 1015.0
20260508135734 53 222 3.5 18.2 0.00 0.05 0.00 48 1014.9
20260508134836 53 219 4.3 15.6 0.00 0.05 0.00 48 1014.8
20260508133934 52 222 6.1 20.0 0.00 0.05 0.00 48 1014.8
20260508133034 52 228 6.1 15.6 0.00 0.05 0.00 48 1014.8
20260508132135 52 222 7.0 15.6 0.00 0.05 0.00 48 1014.8
20260508131235 52 232 7.8 15.6 0.00 0.05 0.00 49 1014.8
20260508130334 52 248 4.3 14.8 0.00 0.05 0.00 51 1014.5
20260508125434 51 259 7.0 17.4 0.00 0.05 0.00 52 1014.5
20260508124534 51 253 5.2 13.0 0.00 0.05 0.00 52 1014.6
20260508123634 51 227 6.1 13.9 0.00 0.05 0.00 52 1014.6
20260508122734 50 244 7.0 13.9 0.00 0.05 0.00 53 1014.5
20260508120934 49 254 4.3 13.0 0.00 0.05 0.00 58 1014.5
20260508115134 48 258 3.5 9.6 0.00 0.05 0.00 62 1014.3
20260508114234 47 257 5.2 9.6 0.00 0.05 0.00 64 1014.3
20260508113335 46 274 3.5 9.6 0.00 0.05 0.00 65 1013.9
20260508112435 46 284 4.3 7.8 0.00 0.05 0.00 67 1013.9
20260508111534 45 284 3.5 9.6 0.00 0.05 0.00 68 1013.9
20260508110634 45 272 1.7 9.6 0.00 0.05 0.00 67 1013.6
20260508105735 45 289 3.5 9.6 0.00 0.05 0.00 66 1013.6
20260508104834 46 282 2.6 6.1 0.00 0.05 0.00 65 1013.1
20260508103934 46 266 1.7 7.0 0.00 0.05 0.00 63 1013.1
20260508103034 46 254 2.6 7.8 0.00 0.05 0.00 62 1013.0
20260508102134 46 250 4.3 7.0 0.00 0.05 0.00 62 1012.7
20260508101235 47 244 1.7 11.3 0.00 0.05 0.00 61 1012.6
20260508100334 47 234 4.3 11.3 0.00 0.05 0.00 59 1012.3
20260508095434 47 225 5.2 11.3 0.00 0.05 0.00 58 1012.4
20260508094534 47 224 4.3 14.8 0.00 0.05 0.00 60 1012.2
20260508093634 47 223 8.7 14.8 0.00 0.05 0.00 60 1012.0
20260508092734 46 246 1.7 12.2 0.00 0.05 0.00 67 1011.9
20260508090934 45 264 1.7 7.8 0.00 0.05 0.00 71 1011.7
20260508090034 45 251 1.7 7.8 0.00 0.06 0.00 72 1011.4
20260508084234 45 254 2.6 5.2 0.00 0.07 0.00 72 1011.1
20260508083334 45 231 3.5 9.6 0.00 0.07 0.00 71 1011.1
20260508082434 46 222 3.5 9.6 0.00 0.07 0.00 70 1011.3
20260508080634 46 230 5.2 14.8 0.00 0.07 0.00 68 1010.8
20260508075735 47 237 5.2 12.2 0.00 0.07 0.00 68 1010.8
20260508074834 46 237 3.5 7.8 0.00 0.07 0.00 70 1010.8
20260508073934 46 224 2.6 9.6 0.00 0.07 0.00 69 1010.9
20260508073035 47 225 6.1 9.6 0.00 0.07 0.00 69 1010.7
20260508072134 47 237 3.5 9.6 0.00 0.07 0.00 69 1010.7
20260508071234 47 232 7.0 11.3 0.00 0.07 0.00 68 1010.7
20260508070334 47 224 3.5 12.2 0.00 0.07 0.00 68 1010.8
20260508064534 46 242 3.5 9.6 0.00 0.07 0.00 72 1010.5
20260508063634 47 248 3.5 9.6 0.00 0.07 0.00 72 1010.4
20260508062735 47 232 3.5 7.8 0.00 0.07 0.00 72 1010.6
20260508061834 47 239 4.3 7.8 0.00 0.07 0.00 70 1010.7
20260508060935 47 240 3.5 7.0 0.00 0.07 0.00 71 1010.7
20260508060034 47 263 1.7 7.8 0.00 0.07 0.00 71 1010.5
20260508055134 47 276 3.5 7.0 0.00 0.07 0.00 73 1010.8
20260508054234 47 255 2.6 7.0 0.00 0.07 0.00 72 1010.9
20260508053335 47 272 2.6 6.1 0.00 0.07 0.00 73 1011.1
20260508052435 47 271 1.7 5.2 0.00 0.07 0.00 74 1011.0
20260508051533 47 285 2.6 5.2 0.00 0.07 0.00 75 1011.4
20260508050634 47 266 2.6 6.1 0.00 0.07 0.00 73 1011.2
20260508045734 47 283 1.7 5.2 0.00 0.07 0.00 74 1011.3
20260508044834 47 271 3.5 7.0 0.00 0.07 0.00 74 1011.3
20260508043936 48 268 2.6 5.2 0.00 0.07 0.00 74 1011.3
20260508043034 48 286 2.6 5.2 0.00 0.07 0.00 73 1011.3
20260508042135 48 294 1.7 6.1 0.00 0.07 0.00 73 1011.2
20260508041233 48 295 2.6 6.1 0.00 0.07 0.00 75 1011.0
20260508035434 49 298 2.6 6.1 0.00 0.07 0.00 73 1010.6
20260508034533 49 288 3.5 5.2 0.00 0.07 0.00 71 1010.5
20260508032733 51 252 2.6 5.2 0.00 0.07 0.00 68 1010.3
20260508031834 51 259 1.7 3.5 0.00 0.07 0.00 68 1010.1
20260508030935 50 270 1.7 5.2 0.00 0.07 0.00 70 1010.2
20260508030033 51 287 2.6 6.1 0.00 0.07 0.00 69 1010.3
20260508024235 52 235 3.5 6.1 0.00 0.07 0.07 65 1010.3
20260508023333 52 234 1.7 6.1 0.00 0.07 0.07 66 1010.3
20260508022434 52 258 2.6 7.8 0.00 0.07 0.07 65 1010.5
20260508021534 53 256 1.7 7.0 0.00 0.07 0.07 66 1010.7
20260508020633 53 254 3.5 7.0 0.00 0.07 0.07 65 1010.5
20260508015733 53 266 3.5 9.6 0.00 0.07 0.07 67 1010.5
20260508014835 52 249 1.7 7.0 0.00 0.07 0.07 68 1010.3
20260508013934 52 269 2.6 7.0 0.00 0.07 0.07 71 1010.3
20260508013035 52 270 2.6 7.0 0.00 0.07 0.07 72 1010.3
20260508012133 52 277 1.7 6.1 0.00 0.07 0.07 74 1009.9
20260508011234 52 270 2.6 7.8 0.00 0.07 0.07 74 1010.1
20260508010334 52 271 3.5 7.8 0.00 0.07 0.07 74 1009.9
20260508005434 52 286 2.6 7.8 0.00 0.07 0.07 75 1010.0
20260508004533 52 278 3.5 7.8 0.00 0.07 0.07 76 1009.9
20260508003634 52 271 3.5 7.0 0.00 0.07 0.07 77 1009.6
20260508002734 52 289 2.6 6.1 0.00 0.07 0.07 78 1009.7
20260508001835 52 290 2.6 5.2 0.00 0.07 0.07 79 1009.4
20260508000933 52 280 1.7 5.2 0.00 0.07 0.07 78 1009.6